Location: Newark
(33.6439°N, 114.9881°W)
Time: 07:30:46
(UTC+00:00)

Tiros 1 - Pass Details

Date: 24 July 2019
Orbit: 630 x 664 km, 48.4° (Epoch: 21 August)

Event Time Altitude Azimuth Distance (km) Brightness Sun altitude
Rises 23:46:27 0° 314° (NW) 2,996 11.2 35.4°
Reaches altitude 10° 23:49:01 10° 324° (NW) 2,080 10.4 34.9°
Maximum altitude 23:53:22 33° 28° (NNE) 1,101 8.4 34.0°
Drops below altitude 10° 23:57:41 10° 93° (E) 2,063 9.3 33.1°
Sets 00:00:12 0° 103° (ESE) 2,967 10.0 32.5°
